#timestamp,LO_Frequency,Hit,StdDev 
1582311615.7,286047001.8,N
1582311635.6,286046999.8,N
1582311655.4,286046999.9,N
1582311675.2,286046999.9,N
1582311695.1,286047002.0,N
1582311696.0,286047002.0,N
1582311715.8,286047002.0,N
1582311735.6,286047002.4,N
1582311755.5,286047002.4,N
1582311775.3,286047000.6,N
1582311795.2,286046999.9,N
1582311815.9,286047004.3,Y
1582311835.7,286047000.6,P
1582311855.6,286046999.7,N
1582311875.4,286046999.8,N
1582311895.3,286047003.9,Y
1582311915.1,286047004.3,P
1582311935.8,286047001.3,N
1582311955.7,286047001.8,N
1582311975.5,286046999.7,N
1582311995.4,286047001.5,N
1582312015.2,286047003.4,N
1582312035.0,286047005.8,Y
1582312035.9,286047005.8,P
1582312055.8,286047003.9,N
1582312075.6,286047001.9,N
1582312095.4,286047001.4,N
1582312115.3,286047001.7,N
1582312135.1,286047001.8,N
1582312155.9,286047001.8,N
1582312175.7,286047003.4,N
1582312195.5,286047003.7,N
1582312215.4,286047004.3,Y
1582312235.2,286046998.1,P
1582312255.1,286047000.8,N
1582312256.0,286047000.8,N
1582312275.8,286047001.8,N
1582312295.6,286047002.7,N
1582312315.5,286047002.4,N
1582312335.3,286047000.6,N
1582312355.2,286047001.2,N
1582312375.9,286046998.6,N
1582312395.7,286047000.2,N
1582312415.6,286046996.5,N
1582312435.4,286046996.5,N
1582312455.2,286046998.6,N
1582312475.1,286046999.3,N
1582312476.0,286046999.3,N
1582312495.8,286046999.2,N
1582312515.7,286046998.7,N
1582312535.5,286047000.9,N
1582312555.3,286047000.7,N
1582312575.2,286046998.6,N
1582312595.0,286046998.6,N
1582312595.9,286046998.6,N
1582312615.8,286046998.6,N
1582312635.6,286047000.7,N
1582312655.4,286047000.7,N
1582312675.3,286046998.5,N
1582312695.1,286046998.5,N
1582312715.8,286046998.1,N
1582312735.7,286047002.8,N
1582312755.5,286047002.2,N
1582312775.4,286046999.7,N
1582312795.2,286047000.7,N
1582312815.0,286047002.3,N
1582312815.9,286047002.3,N
1582312835.8,286047001.5,N
1582312855.6,286047003.7,N
1582312875.4,286047004.4,N
1582312895.3,286047004.8,N
1582312915.1,286047005.8,N
1582312935.9,286047001.4,N
1582312955.7,286047004.4,N
1582312975.5,286047004.3,N
1582312995.4,286047004.1,N
1582313015.2,286047002.6,N
1582313035.1,286047003.7,N
1582313036.0,286047003.7,N
1582313055.8,286047004.1,N
1582313075.6,286047005.6,N
1582313095.5,286047003.6,N
1582313115.3,286047001.8,N
1582313135.1,286047004.0,N
1582313155.9,286047004.0,N
1582313175.7,286047004.0,N
1582313195.6,286047002.7,N
1582313215.4,286047002.3,N
1582313235.2,286047001.7,N
1582313255.1,286047001.4,N
1582313256.0,286047001.4,N
1582313275.8,286047004.0,N
1582313295.7,286047001.5,N
1582313315.5,286047001.9,N
1582313335.3,286047003.9,N
1582313355.2,286047002.1,N
1582313375.0,286046999.8,N
1582313375.9,286046999.8,N
1582313395.8,286047000.2,N
1582313415.6,286047002.8,N
1582313435.4,286047005.9,Y
1582313455.3,286047002.4,P
1582313475.1,286046998.7,P
1582313495.8,286046999.8,N
1582313515.7,286046999.8,N
1582313535.5,286047000.2,N
1582313555.4,286047001.7,N
1582313575.2,286047001.8,N
1582313595.0,286047002.8,N
1582313595.9,286047002.8,N
1582313615.8,286047002.6,N
1582313635.6,286046998.5,N
1582313655.5,286046999.3,N
1582313675.3,286046999.5,N
1582313695.1,286046998.8,N
1582313715.9,286046998.5,N
1582313735.7,286047000.2,N
1582313755.6,286047000.5,N
1582313775.4,286047001.1,N
1582313795.2,286046999.9,N
1582313815.1,286047002.2,N
1582313816.0,286047002.2,N
1582313835.8,286046998.6,N
1582313855.6,286046999.2,N
1582313875.5,286046999.2,N
1582313895.3,286046999.4,N
1582313915.2,286047001.0,N
1582313935.9,286047000.2,N
1582313955.7,286047002.4,N
1582313975.6,286047001.5,N
1582313995.4,286046999.7,N
1582314015.3,286047000.9,N
1582314035.1,286047002.4,N
1582314036.0,286047002.4,N
1582314055.8,286047002.3,N
1582314075.7,286047000.6,N
1582314095.5,286047001.2,N
1582314115.4,286047000.5,N
1582314135.2,286046998.7,N
1582314155.0,286046999.0,N
1582314155.9,286046999.0,N
1582314175.8,286046998.6,N
1582314195.6,286047001.6,N
1582314215.5,286047004.3,Y
1582314235.3,286047002.4,P
1582314255.1,286047000.3,N
1582314275.9,286047000.5,N
1582314325.7,286046999.0,E
1582314335.7,286047000.0,N
1582314355.5,286047001.9,P
1582314375.3,286047002.1,N
1582314395.2,286047000.1,N
1582314415.0,286047002.2,N
1582314445.9,286047000.2,E
1582314455.9,286047001.7,N
1582314475.7,286047001.3,P
1582314495.5,286047002.3,P
1582314515.4,286047005.1,Y
1582314535.2,286047002.2,P
1582314555.1,286046999.9,N
1582314556.0,286046999.9,N
1582314575.8,286046998.2,N
1582314595.6,286047000.4,N
1582314615.5,286046999.8,N
1582314635.3,286047001.0,N
1582314655.2,286047000.1,N
1582314675.9,286047004.0,Y
1582314695.7,286047002.4,P
1582314715.6,286047000.1,N
1582314735.4,286047000.3,N
1582314755.3,286047002.5,N
1582314775.1,286047003.7,Y
1582314776.0,286047003.7,P
1582314795.8,286047001.8,N
1582314815.7,286047001.3,N
1582314835.5,286046998.5,N
1582314855.4,286046998.7,N
1582314875.2,286046998.9,N
1582314895.0,286047000.8,N
1582314895.9,286047000.8,N
1582314915.8,286047000.9,N
1582314935.6,286047000.7,N
1582314955.4,286047001.1,N
1582314975.3,286046997.0,N
1582314995.1,286046996.6,N
1582315015.9,286046997.2,N
1582315035.7,286046994.2,N
1582315055.5,286046995.7,N
1582315075.4,286046997.0,N
1582315095.2,286046994.0,N
1582315115.1,286046995.2,N
1582315116.0,286046995.2,N
1582315135.8,286046999.6,N
1582315155.6,286047000.5,N
1582315175.5,286047000.4,N
1582315195.3,286046999.8,N
